Location: Munderkingen
(48.2395°N, 9.6433°E)
Time: 23:22:51
(UTC+01:00)

ISS - Pass Details

Date: 12 November 2017
Orbit: 401 x 407 km, 51.6° (Epoch: 25 November)

Event Time Altitude Azimuth Distance (km) Brightness Sun altitude
Exits shadow 04:20:17 12° 72° (ENE) 1,334 -0.4 -30.6°
Drops below altitude 10° 04:20:36 10° 74° (ENE) 1,457 -0.1 -30.5°
Sets 04:22:45 0° 81° (E) 2,316 1.2 -30.2°
